カタログに戻る

DELTA 1 DEB

運用中LEO
NORAD 27729·DEBRIS·🇺🇸 United States

打ち上げ Jul 14, 1977 から Cape Canaveral Space Force Station

Loading…

次のパス (今後24時間)

TLE

最新Source: Space-Track

元期: Sep 14, 2026, 07:03 UTC

1 27729U 77065GH  26257.29419230  .00006266  00000-0  10433-2 0  9997
2 27729  28.6422 328.6493 0362974 188.9398 170.4571 14.32990951714892

AllMySatでDELTA 1 DEBをリアルタイム追跡

Download on the App Store